Location: Lalanga
(4.5882°N, 32.9072°E)
Time: 02:35:53
(UTC+00:00)

SL-16 R/B - Pass Details

Date: 24 January 2020
Orbit: 841 x 848 km, 71.0° (Epoch: 19 February)

Event Time Altitude Azimuth Distance (km) Brightness Sun altitude
Rises 17:34:49 0° 343° (NNW) 3,387 5.3 -23.8°
Reaches altitude 10° 17:37:15 10° 342° (NNW) 2,453 4.6 -24.4°
Maximum altitude 17:42:53 83° 256° (WSW) 851 2.1 -25.7°
Drops below altitude 10° 17:48:31 10° 167° (SSE) 2,455 4.7 -27.0°
Sets 17:50:58 0° 166° (SSE) 3,390 5.4 -27.6°
